Location: Quedlinburg
(51.7921°N, 11.1414°E)
Time: 19:15:17
(UTC+02:00)

ISS - Visible Passes

Search period start: 21 May 2026 00:00
Search period end: 31 May 2026 00:00
Orbit: 414 x 424 km, 51.6° (Epoch: 21 May)

Date Brightness Start Highest point End Pass type
(mag) Time Alt. Az. Time Alt. Az. Time Alt. Az.
21 May -3.2 21:50:59 10° W 21:54:11 45° SSW 21:57:24 10° SE visible
21 May -1.5 23:28:53 10° WSW 23:30:22 12° SW 23:30:39 12° SW visible
22 May -1.8 22:40:30 10° W 22:42:52 18° SW 22:44:38 13° S visible
23 May -2.2 21:52:29 10° W 21:55:17 25° SSW 21:58:05 10° SSE visible
